Погода в Нингане

Австралия     31°33′41″S   147°11′47″E
темп.,
°C
ветер,
м/с
пор.,
м/с
влажн.,
%
обл.,
%
осадки,
мм/ч
давл.,
гПа
погр.,
м
13 апреля, вт
вт1301:00+12ююв34492 0.0 102136
04:00+11вюв33525 0.0 102023
07:00+10вюв335411 0.0 102138
10:00+16св233798 0.0 1021527
13:00+21ссв342478 0.0 10191201
16:00+22с33215 0.0 10171418
19:00+18с33275 0.0 101812
22:00+17ссв44295 0.0 101927
14 апреля, ср
ср1401:00+16с443314 0.0 101829
04:00+14с33355 0.0 101725
07:00+14с44365 0.0 101839
10:00+22ссз57245 0.0 1018610
13:00+26сз56170 0.0 10161667
16:00+27з45145 0.0 10142373
19:00+23ююз5719100 0.0 1015157
22:00+20ююв3525100 0.0 1017143
15 апреля, чт
чт1501:00+18ю463113 0.0 101680
04:00+16ю464433 0.0 1016102
07:00+15ю46640 0.0 1018106
10:00+21ююв56390 0.0 1018763
13:00+24ююз55305 0.0 10161573
16:00+24ююз662444 0.0 10152162
19:00+20ю6103599 0.0 1017235
22:00+17ю7134260 0.0 1019295
16 апреля, пт
пт1601:00+15ю6124510 0.0 1019238
04:00
07:00+13ююв485693 0.0 1021157
10:00+18ююв784099 0.0 1021870
13:00+21ююв6632100 0.0 10191346
16:00+21ююв5530100 0.0 10181550
19:00+19ю3435100 0.0 101954
22:00+17ю464358 0.0 102096
17 апреля, сб
сб1701:00+16ю464826 0.0 1020121
04:00+13ю48566 0.0 1020130
07:00+13ююз5105237 0.0 1021200
10:00+19ю89334 0.0 1021854
13:00+22ююз66280 0.0 10192105
16:00+22ююз66250 0.0 10192230
19:00+17ююз58330 0.0 1020101
22:00+15ю46380 0.0 102196